Weather History for KLOR - March, 2014

Change the Weather History Date:

Sunday, March 23, 2014

  Actual Average (KDHN) Record (KDHN)
Temperature  
Mean Temperature 62 °F 60 °F  
Max Temperature 71 °F 72 °F 85 °F (1939)
Min Temperature 53 °F 48 °F 30 °F (1955)
Degree Days  
Heating Degree Days 3 6  
Month to date heating degree days 172  
Since 1 July heating degree days 1731  
Cooling Degree Days 0 1  
Month to date cooling degree days 22  
Year to date cooling degree days 32  
Growing Degree Days 12 (Base 50)    
Moisture  
Dew Point 56 °F    
Average Humidity 81    
Maximum Humidity 97    
Minimum Humidity 66    
Precipitation  
Precipitation 0.07 in 0.21 in 1.06 in (1969)
Month to date precipitation 3.97  
Year to date precipitation 13.37  
Sea Level Pressure  
Sea Level Pressure 30.02 in    
Wind  
Wind Speed 4 mph (NNW)    
Max Wind Speed 14 mph    
Max Gust Speed 21 mph    
Visibility 8 miles    
Events Fog , Rain    
T = Trace of Precipitation, MM = Missing Value Source: NWS Daily Summary

Daily Weather History Graph

Daily Weather History Graph

Search for Another Location

Airport or City:

Trip Planner

Search our weather history database for the weather conditions in past years. The results will help you decide how hot, cold, wet, or windy it might be!

Date:

Astronomy

Mar. 23, 2014 Rise Set
Actual Time 6:42 AM CDT 6:56 PM CDT
Civil Twilight 6:18 AM CDT 7:20 PM CDT
Nautical Twilight 5:50 AM CDT 7:49 PM CDT
Astronomical Twilight 5:21 AM CDT 8:17 PM CDT
Moon 12:54 AM CDT (3/23) 11:41 AM CDT (3/23)
Length of Visible Light 13h 02m
Length of Day
12h 13m
Waning Gibbous, 54% of the Moon is Illuminated
Mar 23
Waning Gibbous
Mar 23
Last Quarter
Mar 30
New
Apr 7
First Quarter
Apr 15
Full

Hourly Weather History & Observations

Time (CDT) Temp. Dew Point Humidity Pressure Visibility Wind Dir Wind Speed Gust Speed Precip Events Conditions
12:53 AM 57.9 °F 52.0 °F 81% 30.01 in 10.0 mi Calm Calm - N/A   Clear
1:53 AM 57.0 °F 53.1 °F 87% 29.99 in 9.0 mi Calm Calm - N/A   Clear
2:53 AM 55.0 °F 52.0 °F 89% 29.98 in 7.0 mi Calm Calm - N/A   Clear
3:53 AM 53.1 °F 51.1 °F 93% 29.97 in 6.0 mi Calm Calm - N/A   Clear
4:44 AM 53.1 °F 51.1 °F 93% 29.98 in 7.0 mi Calm Calm - N/A   Scattered Clouds
4:53 AM 53.1 °F 51.1 °F 93% 29.98 in 7.0 mi SSW 4.6 mph - N/A   Mostly Cloudy
5:11 AM 55.0 °F 53.1 °F 93% 29.98 in 5.0 mi SSW 3.5 mph - N/A   Overcast
5:31 AM 57.0 °F 55.0 °F 93% 29.99 in 1.5 mi SW 3.5 mph - N/A   Overcast
5:40 AM 57.0 °F 55.9 °F 96% 29.99 in 0.2 mi Calm Calm - N/A Fog Fog
5:53 AM 57.9 °F 57.0 °F 97% 29.99 in 0.2 mi WSW 4.6 mph - N/A Fog Fog
6:53 AM 57.0 °F 55.9 °F 96% 29.99 in 0.2 mi Calm Calm - N/A Fog Fog
7:53 AM 60.1 °F 57.9 °F 93% 30.00 in 0.8 mi Calm Calm - N/A   Overcast
8:19 AM 60.1 °F 57.9 °F 93% 30.01 in 3.0 mi WSW 3.5 mph - N/A   Overcast
8:48 AM 60.8 °F 59.0 °F 94% 30.02 in 7.0 mi WNW 4.6 mph - N/A   Overcast
8:53 AM 61.0 °F 59.0 °F 93% 30.02 in 8.0 mi WNW 4.6 mph - N/A   Overcast
9:50 AM 62.6 °F 59.0 °F 88% 30.06 in 9.0 mi NNW 5.8 mph - N/A   Overcast
9:53 AM 63.0 °F 59.0 °F 87% 30.06 in 9.0 mi NW 5.8 mph - N/A   Overcast
10:53 AM 63.0 °F 60.1 °F 90% 30.08 in 3.0 mi NNW 5.8 mph - 0.07 in Rain Light Rain
11:37 AM 63.0 °F 60.1 °F 90% 30.06 in 8.0 mi North 6.9 mph - 0.00 in   Overcast
11:51 AM 64.4 °F 60.8 °F 88% 30.06 in 7.0 mi Variable 4.6 mph - 0.00 in   Overcast
11:53 AM 64.0 °F 61.0 °F 90% 30.05 in 7.0 mi Variable 3.5 mph - 0.00 in   Mostly Cloudy
12:00 PM 64.9 °F 61.0 °F 87% 30.04 in 8.0 mi NE 4.6 mph - N/A   Mostly Cloudy
12:20 PM 66.0 °F 61.0 °F 84% 30.02 in 10.0 mi Variable 4.6 mph - N/A   Mostly Cloudy
12:44 PM 66.9 °F 60.1 °F 79% 30.02 in 10.0 mi East 4.6 mph - N/A   Mostly Cloudy
12:53 PM 69.1 °F 61.0 °F 75% 30.01 in 10.0 mi North 4.6 mph - N/A   Mostly Cloudy
1:53 PM 70.0 °F 60.1 °F 71% 30.00 in 10.0 mi WNW 6.9 mph - N/A   Mostly Cloudy
2:20 PM 71.1 °F 59.0 °F 66% 29.99 in 10.0 mi NNW 9.2 mph - N/A   Mostly Cloudy
2:46 PM 70.0 °F 59.0 °F 68% 29.99 in 10.0 mi NNW 11.5 mph - N/A   Overcast
2:53 PM 71.1 °F 59.0 °F 66% 29.99 in 10.0 mi NW 9.2 mph - N/A   Overcast
3:51 PM 69.8 °F 59.0 °F 68% 29.98 in 10.0 mi North 11.5 mph - N/A   Mostly Cloudy
3:53 PM 69.1 °F 59.0 °F 70% 29.98 in 10.0 mi North 11.5 mph - N/A   Mostly Cloudy
4:12 PM 69.1 °F 57.9 °F 68% 29.98 in 10.0 mi NNW 9.2 mph - N/A   Scattered Clouds
4:24 PM 68.0 °F 57.0 °F 68% 29.99 in 10.0 mi NNW 13.8 mph - N/A   Mostly Cloudy
4:32 PM 66.0 °F 55.9 °F 70% 29.99 in 10.0 mi North 10.4 mph 20.7 mph N/A   Scattered Clouds
4:41 PM 66.0 °F 55.9 °F 70% 30.00 in 10.0 mi NNW 12.7 mph 19.6 mph N/A   Mostly Cloudy
4:53 PM 64.9 °F 55.0 °F 70% 30.00 in 10.0 mi NW 12.7 mph - N/A   Mostly Cloudy
5:53 PM 63.0 °F 54.0 °F 72% 30.03 in 10.0 mi NNW 11.5 mph 18.4 mph N/A   Overcast
6:53 PM 61.0 °F 52.0 °F 72% 30.06 in 10.0 mi NNW 9.2 mph - N/A   Overcast
7:53 PM 60.1 °F 50.0 °F 69% 30.08 in 10.0 mi North 9.2 mph 17.3 mph N/A   Overcast
8:35 PM 59.0 °F 48.9 °F 69% 30.12 in 10.0 mi NNW 9.2 mph - N/A   Scattered Clouds
8:53 PM 57.9 °F 48.9 °F 72% 30.12 in 10.0 mi North 6.9 mph - N/A   Clear
9:53 PM 57.0 °F 46.9 °F 69% 30.15 in 10.0 mi North 12.7 mph 19.6 mph N/A   Partly Cloudy
10:53 PM 55.9 °F 45.0 °F 67% 30.13 in 10.0 mi NNE 8.1 mph - N/A   Mostly Cloudy
11:53 PM 55.0 °F 44.1 °F 67% 30.12 in 10.0 mi NNE 8.1 mph - N/A   Partly Cloudy